CZ-6A DEB

Satellite information

Favourite Embed

Satellite Type and Status

DEBRISIN ORBIT

Key statistics

Satellite CZ-6A DEB at a glance.

Uptime

436

Days in orbit

Revolutions

≈ 14.2

Per day

Orbit

LEO

Low Earth Orbit

Inclination

88.8

Latest

Satellite identification and parameters

Extended collection of information and parameters for CZ-6A DEB.

Object identification

Identified? True

Debris? True

Object name: CZ-6A DEB

International designator: 2024-140CM

Object number (NORAD): 60684

Object ID (CCSDS): 60684

Country: PEOPLES REPUBLIC OF CHINA (PRC)

Current information (Y/N): Y

RCS size: MEDIUM

Orbital parameters

Period: 101.554 minutes

Inclination: 88.7824 deg

SMA: 7210.379 km

Apoapsis: 872.697 km

Periapsis: 791.791 km

RAAN: 291.5516 deg

Eccentricy: 0.00561037

Argument of periapsis: 248.5792 deg

Mean anomaly: 110.9407 deg

Mean motion: 14.17965459 rev/day

Mean motion (dot): 0.00001625 rev/day2

B* drag term: 0.00077557148 1/REarth

Two-line elements (TLE)

Creation date: Oct. 16, 2025, 2:37 a.m.

Reference frame: TEME

Reference center: EARTH

Epoch: Oct. 15, 2025, 10:26 p.m. UTC

TLE line 0: 0 CZ-6A DEB

TLE line 1: 1 60684U 24140CM 25288.93500162 .00001625 00000-0 77557-3 0 9994

TLE line 2: 2 60684 88.7824 291.5516 0056104 248.5792 110.9407 14.17965459 61296

Live tracking on map

Real-time ground track for satellite CZ-6A DEB.

In-orbit conjunctions

A list of the most updated potential collisions computed for object CZ-6A DEB.

Target Orbit TCA Probability of collision Miss distance Type
CZ-6A DEB LEO 2025-06-07 16:49:09 0.0001490285 599.0 (m) DEBRIS
COSMOS 1275 DEB LEO 2025-04-28 04:29:04 0.0001457759 79.0 (m) DEBRIS
IRS P2 R/B SSO 2025-04-13 04:26:51 0.000135509 338.0 (m) ROCKET BODY
DELTA 1 DEB SSO 2024-12-07 16:09:42 0.000181548 595.0 (m) DEBRIS
CZ-4 DEB SSO 2024-11-10 07:27:37 0.0001329362 260.0 (m) DEBRIS

Associated space launch

18 Low Earth Orbit communication satellites with Ku, Q and V band payloads for the G60 constellation operated by Shanghai Spacecom Satellite Technology (SSST) with funding backed by the Shanghai local government. Initial constellation will consist of 1296 satellites by 2027 with long term plans to expand it to 12000 satellites.

CZ-6A DEB was lifted into orbit during the mission ‘Long March 6A | G60 Polar Group 01’, on board a Long March 6A space rocket.

The launch took place on Aug. 6, 2024, 6:42 a.m. from Launch Complex 9A.

For more information about the launch, click the button.

Launch to space Long March 6A | G60 Polar Group 01
Long March 6A | G60 Polar Group 01

Agency: N/A

Status: Launch Successful

Launch date: Aug. 6, 2024, 6:42 a.m. UTC

Rocket: Long March 6A

Launch pad: Launch Complex 9A

Location: Taiyuan Satellite Launch Center, People's Republic of China

...

Latest news about this satellite

News about space launch
Brightness of first Chinese broadband constellation satellites alarms astronomers

The first satellites of a Chinese broadband constellation are significantly brighter than those of Western systems, posing a new challenge for astronomers.

News about space launch
Chinese rocket stage breaks up into cloud of more than 700 pieces of space debris

HELSINKI — A Chinese Long March 6A rocket’s upper stage has fragmented into a cloud of over 700 pieces of space debris, adding to concerns about long-term orbital safety. China […]

News about space launch
China's Thousand Sails Megaconstellation Kicks Off with Dangerous Debris Field

China's Thousand Sails Megaconstellation Kicks Off with Dangerous Debris Field


Newsletter sign-up

Weekly statistics, charts and insights to help you stay on top of the space industry.